This is the latest recevied weather packets stored in our database for station/object KN6DHD. If no packets are shown the sender has not sent any weather packets the latest 10 day(s).
| Time | Temp. | Humidity | Pressure | Rain* | Wind** | Luminosity | Snow |
|---|---|---|---|---|---|---|---|
| 1777148603 | 16.11° C | 68% | 1011.3 hPa | 0 mm | - | 140 W/m² | - |
| 1777148299 | 16.67° C | 68% | 1011.3 hPa | 0 mm | - | 182 W/m² | - |
| 1777147995 | 16.11° C | 69% | 1011.2 hPa | 0 mm | - | 192 W/m² | - |
| 1777147692 | 16.67° C | 68% | 1011.2 hPa | 0 mm | - | 196 W/m² | - |
| 1777147388 | 16.67° C | 69% | 1011.5 hPa | 0 mm | - | 246 W/m² | - |
| 1777147083 | 16.11° C | 68% | 1011.4 hPa | 0 mm | - | 270 W/m² | - |
| 1777146779 | 16.11° C | 70% | 1011.6 hPa | 0 mm | - | 235 W/m² | - |
| 1777146474 | 16.11° C | 70% | 1011.5 hPa | 0 mm | - | 209 W/m² | - |
| 1777146171 | 16.11° C | 70% | 1011.6 hPa | 0 mm | - | 175 W/m² | - |
| 1777145867 | 16.11° C | 71% | 1011.8 hPa | 0 mm | - | 168 W/m² | - |
| 1777145563 | 16.11° C | 70% | 1011.7 hPa | 0 mm | - | 135 W/m² | - |
| 1777145258 | 16.11° C | 69% | 1011.7 hPa | 0 mm | - | 155 W/m² | - |
| 1777144953 | 16.11° C | 68% | 1011.6 hPa | 0 mm | - | 203 W/m² | - |
| 1777144646 | 16.67° C | 68% | 1011.7 hPa | 0 mm | - | 301 W/m² | - |
| 1777144337 | 16.67° C | 68% | 1011.8 hPa | 0 mm | - | 284 W/m² | - |
| 1777144033 | 16.67° C | 66% | 1011.7 hPa | 0 mm | - | 293 W/m² | - |
| 1777143729 | 16.67° C | 68% | 1011.9 hPa | 0 mm | - | 317 W/m² | - |
| 1777143426 | 16.67° C | 68% | 1012.3 hPa | 0 mm | - | 297 W/m² | - |
| 1777143122 | 16.11° C | 70% | 1012 hPa | 0 mm | - | 294 W/m² | - |
| 1777142817 | 15.56° C | 70% | 1012.1 hPa | 0 mm | - | 296 W/m² | - |
| 1777142515 | 15.56° C | 72% | 1012.2 hPa | 0 mm | - | 239 W/m² | - |
| 1777142214 | 15.56° C | 72% | 1012.1 hPa | 0 mm | - | 173 W/m² | - |
| 1777141910 | 15.56° C | 71% | 1012.2 hPa | 0 mm | - | 240 W/m² | - |
| 1777141607 | 16.11° C | 71% | 1012.4 hPa | 0 mm | - | 223 W/m² | - |
| 1777141306 | 16.11° C | 70% | 1012.1 hPa | 0 mm | - | 269 W/m² | - |
* Rain latest hour (hover to see other rain measurements)
** Current wind speed in m/s (hover to see current wind gust speed)